| time (UTC) | temp F | wind direction | speed knots | gust knots | rain 1hr in | rain 24hr in | rain mn in | humidity % | barometer mb |
| 20260504191904 | 69 | 334 | 0.0 | 0.9 | 0.00 | 0.00 | 0.00 | 48 | 1015.2 |
| 20260504190805 | 69 | 334 | 0.9 | 1.7 | 0.00 | 0.00 | 0.00 | 47 | 1015.1 |
| 20260504185705 | 69 | 334 | 0.0 | 0.0 | 0.00 | 0.00 | 0.00 | 47 | 1015.1 |
| 20260504184604 | 70 | 334 | 0.0 | 0.0 | 0.00 | 0.00 | 0.00 | 46 | 1015.0 |
| 20260504183504 | 70 | 334 | 0.0 | 0.0 | 0.00 | 0.00 | 0.00 | 45 | 1015.0 |
| 20260504182405 | 71 | 334 | 0.0 | 0.0 | 0.00 | 0.00 | 0.00 | 44 | 1015.0 |
| 20260504181304 | 71 | 334 | 0.9 | 0.9 | 0.00 | 0.00 | 0.00 | 43 | 1014.8 |
| 20260504180204 | 71 | 334 | 0.0 | 0.0 | 0.00 | 0.00 | 0.00 | 43 | 1014.9 |
| 20260504175105 | 71 | 334 | 0.0 | 0.9 | 0.00 | 0.00 | 0.00 | 43 | 1015.0 |
| 20260504174005 | 72 | 334 | 0.9 | 2.6 | 0.00 | 0.00 | 0.00 | 42 | 1015.0 |
| 20260504172903 | 72 | 334 | 0.0 | 0.0 | 0.00 | 0.00 | 0.00 | 42 | 1014.9 |
| 20260504171803 | 72 | 335 | 0.0 | 0.0 | 0.00 | 0.00 | 0.00 | 42 | 1015.0 |
| 20260504170704 | 72 | 335 | 0.9 | 0.9 | 0.00 | 0.00 | 0.00 | 41 | 1015.1 |
| 20260504160104 | 74 | 308 | 1.7 | 2.6 | 0.00 | 0.00 | 0.00 | 38 | 1015.3 |
| 20260504150605 | 74 | 319 | 1.7 | 6.1 | 0.00 | 0.00 | 0.00 | 38 | 1015.6 |
| 20260504141105 | 73 | 295 | 1.7 | 2.6 | 0.00 | 0.00 | 0.00 | 36 | 1016.1 |
| 20260504130505 | 71 | 268 | 2.6 | 6.1 | 0.00 | 0.00 | 0.00 | 42 | 1016.7 |
| 20260504110404 | 73 | 290 | 4.3 | 7.8 | 0.00 | 0.00 | 0.00 | 37 | 1017.2 |
| 20260504081905 | 70 | 301 | 1.7 | 2.6 | 0.00 | 0.00 | 0.00 | 40 | 1017.9 |
| 20260504080804 | 69 | 300 | 2.6 | 2.6 | 0.00 | 0.00 | 0.00 | 41 | 1017.8 |
| 20260504070203 | 66 | 302 | 1.7 | 4.3 | 0.00 | 0.00 | 0.00 | 47 | 1017.3 |
| 20260503194005 | 70 | 269 | 0.9 | 2.6 | 0.00 | 0.00 | 0.00 | 39 | 1016.5 |
| 20260503192904 | 70 | 276 | 1.7 | 2.6 | 0.00 | 0.00 | 0.00 | 39 | 1016.4 |